Temperature
7 7 6 6 6 6 6 5 5 5 5 5 5 5 4 4 4 3 3 3 2 2 2 1 1 1 0 -0 -1 -1 -2 -3 -4 -2 -2 -2 -2 -2 -2 -2 -2 -2 -3
6 6 6 5 5 5 5 5 5 5 5 4 4 4 4 3 3 3 2 2 1 1 1 0 0 -0 -1 -1 -1 -2 -2 -3 -4 -3 -3 -3 -3 -3 -3 -3 -3 -3 -4
5 5 5 5 5 5 5 5 5 4 4 4 3 3 3 2 2 1 1 1 0 0 -0 -1 -1 -1 -2 -2 -2 -2 -3 -3 -4 -4 -4 -4 -4 -4 -4 -4 -4 -4 -4
5 5 5 5 5 4 4 4 4 4 3 3 2 2 1 1 1 0 -0 -0 -0 -1 -1 -1 -2 -2 -2 -2 -2 -3 -3 -3 -4 -5 -5 -5 -5 -5 -5 -5 -5 -5 -5
4 4 4 4 4 4 4 3 3 3 2 2 1 1 1 0 -0 -1 -1 -1 -1 -2 -2 -2 -2 -2 -2 -3 -3 -3 -3 -4 -4 -5 -6 -6 -6 -6 -6 -5 -6 -5 -5
4 4 4 3 3 3 3 3 2 2 1 1 0 0 -0 -1 -1 -2 -2 -3 -3 -3 -3 -3 -3 -3 -3 -3 -3 -3 -3 -3 -4 -4 -5 -6 -6 -6 -6 -6 -6 -7 -8
3 3 3 3 3 2 2 2 1 1 0 -0 -0 -1 -1 -1 -2 -2 -3 -3 -3 -3 -3 -3 -3 -3 -3 -3 -3 -3 -3 -3 -3 -4 -4 -4 -4 -5 -5 -6 -7 -7 -7
3 3 3 2 2 1 1 1 0 -0 -1 -1 -2 -2 -2 -2 -3 -3 -4 -4 -4 -4 -4 -4 -4 -4 -4 -4 -4 -4 -4 -4 -4 -4 -4 -4 -4 -5 -5 -5 -5 -6 -7
2 2 2 1 1 1 1 0 -1 -1 -2 -2 -3 -3 -3 -3 -3 -4 -4 -4 -4 -4 -4 -4 -4 -4 -4 -4 -5 -5 -5 -5 -5 -5 -5 -5 -5 -5 -5 -6 -6 -7 -8
2 2 1 1 0 -0 -0 -1 -1 -2 -3 -3 -3 -3 -4 -4 -4 -5 -5 -5 -4 -4 -4 -4 -4 -4 -4 -4 -5 -5 -5 -5 -5 -5 -5 -5 -5 -5 -6 -6 -6 -7 -7
1 1 1 0 -0 -1 -1 -2 -3 -3 -4 -4 -4 -5 -5 -5 -5 -5 -5 -5 -4 -4 -4 -4 -4 -4 -4 -4 -5 -5 -5 -5 -5 -5 -6 -6 -6 -6 -6 -6 -6 -6 -7
1 1 0 -0 -1 -1 -2 -2 -3 -4 -5 -5 -6 -6 -6 -5 -5 -5 -5 -4 -4 -4 -4 -4 -4 -4 -4 -4 -5 -5 -5 -5 -5 -5 -6 -6 -6 -6 -7 -7 -6 -7 -7
0 0 -0 -1 -1 -2 -3 -3 -4 -5 -6 -6 -7 -7 -6 -6 -5 -5 -5 -5 -4 -4 -4 -4 -4 -4 -4 -5 -5 -5 -5 -5 -5 -5 -6 -6 -6 -6 -6 -7 -7 -7 -7
-0 -1 -1 -1 -2 -3 -4 -4 -5 -6 -6 -7 -7 -7 -6 -6 -6 -5 -5 -4 -4 -4 -4 -4 -4 -4 -5 -5 -5 -5 -6 -6 -6 -6 -6 -6 -6 -6 -6 -6 -7 -7 -7
-1 -1 -2 -2 -3 -4 -4 -5 -6 -6 -7 -7 -6 -6 -6 -6 -6 -5 -5 -4 -4 -4 -4 -4 -4 -5 -5 -5 -5 -5 -6 -6 -6 -6 -6 -6 -6 -6 -6 -7 -7 -7 -7
-2 -2 -3 -4 -4 -5 -6 -6 -6 -7 -6 -7 -6 -6 -6 -6 -6 -5 -5 -5 -5 -4 -4 -4 -5 -5 -5 -5 -5 -6 -6 -6 -6 -6 -6 -6 -6 -6 -7 -7 -7 -7 -7
-3 -3 -4 -4 -5 -6 -7 -7 -7 -7 -6 -6 -6 -6 -6 -6 -6 -5 -5 -5 -5 -5 -5 -5 -5 -5 -5 -6 -6 -6 -6 -6 -6 -6 -6 -6 -6 -7 -7 -7 -7 -8 -8
-3 -4 -5 -5 -6 -6 -7 -7 -8 -8 -7 -7 -6 -6 -6 -6 -6 -5 -5 -5 -5 -5 -5 -5 -6 -6 -6 -6 -6 -6 -6 -6 -7 -7 -7 -7 -7 -7 -7 -7 -8 -8 -8
-4 -4 -5 -6 -7 -7 -7 -8 -8 -8 -8 -7 -7 -6 -6 -6 -5 -5 -5 -5 -6 -6 -6 -6 -6 -6 -6 -6 -6 -6 -7 -7 -7 -7 -7 -7 -7 -7 -7 -8 -8 -8 -9
-4 -5 -6 -6 -7 -7 -8 -8 -8 -8 -7 -7 -7 -7 -6 -6 -6 -6 -6 -6 -6 -6 -6 -6 -6 -6 -6 -6 -6 -7 -7 -7 -7 -7 -7 -7 -7 -8 -8 -8 -8 -9 -9
-5 -5 -6 -7 -7 -8 -8 -8 -8 -8 -8 -7 -7 -7 -7 -6 -6 -6 -6 -6 -6 -6 -6 -6 -6 -6 -6 -7 -7 -7 -7 -7 -7 -7 -7 -8 -8 -8 -8 -8 -9 -9 -9
-6 -6 -7 -7 -8 -8 -8 -8 -8 -8 -8 -8 -7 -7 -7 -7 -7 -7 -7 -6 -6 -6 -6 -6 -6 -6 -6 -7 -7 -7 -7 -7 -7 -7 -8 -8 -8 -8 -9 -9 -9 -9 -10
-6 -7 -7 -8 -8 -8 -8 -8 -8 -8 -8 -8 -7 -7 -7 -7 -7 -7 -7 -7 -7 -7 -7 -7 -7 -7 -7 -7 -7 -7 -7 -7 -7 -8 -8 -8 -8 -8 -9 -9 -9 -10 -10
-7 -7 -8 -8 -8 -9 -9 -9 -8 -8 -8 -8 -8 -7 -7 -7 -7 -7 -7 -7 -7 -7 -7 -7 -7 -7 -7 -7 -7 -7 -7 -8 -8 -8 -8 -8 -8 -9 -9 -9 -10 -10 -10
-7 -8 -8 -8 -9 -9 -9 -9 -9 -8 -8 -8 -8 -8 -8 -8 -8 -8 -8 -8 -7 -7 -7 -7 -7 -7 -7 -7 -7 -7 -8 -8 -8 -8 -8 -8 -9 -9 -9 -10 -10 -10 -11
-8 -8 -8 -9 -9 -9 -9 -9 -9 -9 -8 -8 -8 -8 -8 -8 -8 -8 -8 -8 -8 -8 -7 -7 -7 -7 -7 -7 -7 -8 -8 -8 -8 -8 -9 -9 -9 -9 -10 -10 -10 -10 -11
Wind_Speed
7 6 7 7 7 7 7 8 8 8 9 9 10 10 10 11 10 10 12 12 14 15 14 15 18 15 15 14 13 14 16 16 21 17 8 8 12 12 12 15 19 20 20
6 6 7 7 8 8 8 9 9 9 9 10 10 10 11 12 11 11 14 13 14 16 15 15 17 14 17 15 14 16 16 16 19 23 11 8 13 12 11 10 10 15 16
6 7 8 8 9 9 10 10 10 10 10 10 10 11 12 12 12 12 13 14 15 15 15 15 16 15 18 15 16 16 15 16 16 19 17 9 9 8 9 10 12 10 12
7 7 8 9 9 10 10 10 10 10 11 12 12 12 13 13 13 13 13 15 15 15 15 15 16 16 18 18 16 17 15 16 15 17 16 10 9 7 8 10 11 10 11
8 9 9 10 10 10 10 11 11 11 12 12 13 14 13 12 12 13 13 14 15 15 15 15 17 20 23 20 16 14 15 15 15 15 16 12 11 7 9 9 13 9 10
9 10 10 10 10 11 12 12 12 12 12 12 13 14 15 13 22 27 22 14 13 14 15 14 15 19 23 28 30 27 22 18 17 16 15 16 13 13 11 11 11 10 10
10 10 11 11 11 12 13 13 14 14 13 13 13 14 16 18 27 29 29 20 15 13 13 13 12 13 19 14 20 26 25 28 26 19 19 17 14 14 14 14 13 10 11
10 11 11 11 12 13 13 14 14 13 13 14 14 15 16 19 28 30 29 19 14 13 13 13 14 13 13 14 13 14 15 16 18 15 14 15 14 12 14 15 13 12 8
11 11 11 11 13 14 15 15 14 14 15 14 14 15 17 20 27 29 28 13 12 13 13 13 14 13 19 23 15 14 15 14 19 24 22 18 22 24 19 12 12 10 10
12 12 12 12 13 15 16 16 15 14 16 15 15 14 16 18 25 28 27 12 12 12 11 11 18 18 20 22 14 13 15 12 10 10 13 14 13 17 24 17 13 11 6
12 12 12 12 12 14 15 14 14 15 15 15 17 15 15 18 22 26 26 13 11 13 11 9 9 19 21 21 18 12 16 13 9 10 9 8 7 7 8 9 11 10 9
12 12 13 12 12 13 14 15 14 14 16 16 16 16 12 13 19 21 26 24 21 13 12 10 11 19 21 21 16 16 19 16 7 7 7 7 7 8 8 8 8 10 9
13 13 13 13 11 11 13 15 15 12 13 15 14 15 14 11 13 24 26 26 25 16 12 18 20 21 19 14 16 18 14 8 6 7 8 8 7 7 6 5 6 7 7
14 14 13 13 14 12 10 11 12 13 14 15 15 15 15 13 11 10 12 14 17 15 13 15 19 19 14 13 12 10 6 6 6 7 7 7 6 6 7 6 6 6 5
14 14 13 12 13 14 12 10 13 12 15 18 15 15 16 16 17 25 21 14 11 12 13 8 7 6 6 6 6 6 6 6 6 4 5 6 7 7 6 6 5 5 5
13 13 11 11 12 12 14 15 19 21 27 28 26 24 18 23 29 29 28 27 26 23 16 8 7 7 7 7 7 6 5 5 5 5 5 6 6 7 6 5 4 5 6
13 14 12 11 12 13 14 15 17 19 23 25 25 26 25 27 28 27 27 26 23 20 10 8 8 7 7 6 6 5 5 5 4 5 5 5 5 6 5 5 5 5 6
11 14 14 12 12 13 14 14 15 17 18 15 18 25 26 26 26 26 25 20 12 10 7 8 8 7 6 6 5 5 4 4 4 4 5 5 5 5 5 5 5 6 6
11 10 11 11 12 12 13 14 14 16 16 15 15 17 22 23 24 22 19 10 10 9 8 8 7 7 6 5 4 4 4 4 3 4 4 4 5 5 5 5 5 9 8
10 18 18 13 12 13 13 14 14 15 15 14 14 14 14 15 12 12 10 9 9 9 8 7 7 6 5 4 3 3 3 3 3 3 4 4 4 4 5 6 6 6 6
10 13 19 15 12 13 13 14 14 14 14 14 14 16 22 15 12 12 11 10 9 9 8 7 6 5 4 3 3 3 3 3 3 4 4 4 4 4 4 5 5 6 6
10 11 11 12 12 12 14 13 13 14 14 15 14 15 21 13 11 11 10 9 8 7 6 5 5 4 3 2 3 3 3 3 3 4 4 4 4 4 4 5 5 6 7
10 12 12 12 12 17 16 12 13 14 14 14 14 13 12 11 10 10 10 9 8 7 5 4 3 3 2 2 2 3 3 4 4 5 4 4 4 5 5 5 7 7 8
10 11 12 13 13 13 13 13 13 14 14 14 13 12 11 10 10 10 10 8 7 5 4 3 3 3 2 1 1 2 2 3 3 4 6 5 5 5 5 6 7 8 9
8 10 11 12 13 13 13 14 14 13 13 13 12 12 11 10 10 9 8 7 7 5 4 3 2 2 2 2 2 2 4 4 4 3 4 4 5 5 6 6 7 8 9
8 10 11 11 11 12 13 14 13 13 13 12 11 11 10 9 9 8 7 6 5 4 3 3 2 2 1 1 2 3 3 4 4 4 2 3 4 5 6 7 9 9 10
Wind_Direction
336 332 330 324 319 312 300 293 291 290 289 284 281 278 274 270 263 257 255 253 251 252 247 245 246 242 244 242 238 237 236 235 251 260 220 207 208 221 233 230 227 232 238
325 324 319 313 312 309 301 296 294 291 288 283 281 279 277 274 268 263 265 261 256 256 252 249 250 248 244 243 241 239 238 234 241 257 250 214 219 219 224 226 227 229 228
324 321 316 313 311 305 299 297 296 293 291 288 284 281 279 276 272 268 266 266 262 259 256 251 252 248 249 246 241 241 240 239 238 249 255 228 224 219 223 231 233 229 226
318 314 309 306 302 297 295 293 292 291 291 289 286 283 280 277 274 272 269 268 266 262 257 254 253 248 249 248 246 243 240 240 239 243 251 242 227 209 213 224 233 227 230
313 308 301 298 297 296 295 293 292 289 288 286 287 287 283 280 276 273 270 266 264 264 260 254 252 252 252 252 248 244 238 239 238 241 246 244 232 211 215 215 230 228 227
305 299 297 298 299 298 297 297 295 292 290 287 287 288 288 287 290 293 292 280 270 266 265 260 255 259 262 264 262 255 241 234 233 234 238 237 231 221 217 217 223 225 233
299 297 297 297 298 298 299 299 296 295 291 290 288 287 288 289 295 296 295 292 283 278 273 270 268 263 266 256 263 267 264 254 242 232 234 233 227 217 214 217 217 216 223
297 296 296 297 297 299 299 297 296 294 293 292 293 292 291 293 298 300 300 296 287 281 276 272 271 268 262 262 255 254 255 258 257 250 239 233 225 217 211 213 215 220 224
296 295 296 296 298 301 301 300 299 299 298 295 294 294 294 296 299 301 299 290 285 281 276 270 270 267 270 272 265 257 255 253 258 257 253 243 230 224 214 210 211 214 222
295 295 295 295 296 298 299 300 300 298 298 299 298 294 292 293 297 301 300 291 288 286 279 269 272 273 274 273 264 258 257 253 242 248 255 258 246 232 224 210 205 209 207
292 294 295 293 292 294 296 297 299 300 299 299 298 296 292 292 297 299 300 296 286 286 285 280 269 277 279 278 273 261 259 254 234 231 232 234 232 228 229 218 204 205 205
295 297 297 296 295 300 299 300 299 299 301 302 302 301 295 292 294 297 298 298 298 293 289 285 277 280 279 278 276 270 269 264 233 216 219 221 221 220 216 211 206 206 210
300 299 300 300 296 292 294 299 303 301 301 303 303 302 301 295 293 298 300 300 299 296 286 285 287 288 286 283 279 278 279 268 236 212 210 215 212 205 193 192 196 202 212
299 302 302 303 304 300 293 294 298 301 301 301 301 301 302 301 297 295 292 294 294 293 290 287 289 288 284 277 274 276 266 254 245 224 208 204 192 191 196 193 194 191 205
298 299 301 300 301 304 300 294 297 291 292 299 301 301 303 303 301 303 304 302 299 292 293 280 276 272 262 258 256 253 248 244 244 225 205 193 192 196 198 191 188 184 198
299 301 301 303 303 303 305 304 299 300 302 303 302 301 301 299 303 306 307 308 309 307 307 292 283 271 265 260 253 248 238 229 219 210 203 193 190 192 190 181 181 190 208
288 296 300 300 302 304 305 307 309 309 306 305 305 305 306 306 307 308 310 311 310 311 305 292 283 276 267 256 248 242 236 222 208 201 197 192 187 185 184 188 191 200 217
286 294 298 297 298 300 302 304 305 307 310 309 307 308 309 309 309 310 311 313 308 305 290 288 287 282 272 260 249 241 233 218 207 199 191 188 186 184 187 194 199 207 221
290 293 294 294 296 299 301 303 303 302 302 303 305 307 310 311 311 309 312 304 299 297 292 288 284 279 272 262 249 234 223 214 199 190 189 186 185 186 197 204 210 229 233
289 297 305 303 302 302 302 303 303 302 302 303 304 306 310 310 310 311 310 301 296 293 290 288 285 279 272 261 244 228 216 207 195 194 192 189 189 194 206 213 217 228 236
292 297 303 303 299 300 302 302 302 302 303 303 302 303 307 311 310 307 305 302 299 296 293 289 285 280 268 252 236 219 210 206 200 196 195 195 194 204 213 219 226 234 245
290 294 295 297 299 301 302 301 302 302 302 302 303 306 310 311 305 304 304 303 300 295 291 287 284 278 260 241 222 213 211 208 201 197 199 202 206 214 220 228 236 245 251
290 293 296 299 301 303 305 302 301 300 301 302 304 306 308 308 308 309 309 309 307 304 299 290 284 282 270 242 219 208 211 214 207 197 200 208 215 222 228 237 245 253 258
287 293 300 304 303 302 301 301 301 301 302 303 304 305 306 308 308 308 309 310 308 307 308 301 289 278 268 254 228 215 211 211 199 202 205 211 222 233 239 248 255 259 264
291 298 302 303 302 302 302 302 301 301 302 304 305 306 306 307 307 308 309 310 308 308 312 315 306 290 267 249 235 237 244 238 228 213 202 211 225 236 249 258 265 270 270
295 300 302 301 300 300 301 301 301 301 303 304 305 304 305 306 307 310 310 310 310 311 314 319 323 327 314 283 254 261 269 262 255 243 218 214 232 252 262 268 271 274 276
Height
1507 1504 1501 1498 1495 1491 1488 1484 1480 1476 1472 1468 1464 1459 1455 1451 1447 1442 1437 1433 1428 1424 1421 1417 1413 1411 1409 1406 1405 1403 1402 1400 1393 1384 1389 1392 1395 1397 1398 1399 1400 1401 1402
1503 1500 1497 1494 1490 1486 1482 1478 1474 1469 1464 1460 1454 1449 1445 1440 1436 1431 1425 1421 1416 1411 1408 1405 1401 1399 1396 1394 1392 1390 1388 1387 1385 1377 1377 1380 1382 1385 1387 1388 1389 1390 1391
1499 1495 1492 1488 1484 1480 1475 1470 1465 1460 1455 1450 1445 1439 1434 1429 1424 1419 1414 1409 1404 1399 1396 1392 1389 1387 1384 1382 1380 1377 1376 1375 1374 1370 1366 1369 1371 1373 1375 1376 1378 1379 1380
1494 1491 1487 1482 1477 1472 1467 1462 1457 1451 1445 1440 1434 1428 1423 1417 1412 1407 1402 1396 1391 1387 1384 1381 1378 1375 1372 1370 1368 1365 1364 1363 1362 1360 1357 1358 1360 1361 1364 1364 1365 1367 1368
1489 1485 1480 1476 1470 1465 1459 1454 1448 1442 1436 1430 1424 1417 1412 1406 1401 1396 1390 1384 1379 1375 1372 1369 1367 1364 1361 1359 1356 1353 1353 1352 1351 1350 1348 1349 1349 1351 1350 1353 1355 1356 1357
1484 1479 1474 1468 1463 1457 1451 1445 1439 1433 1426 1420 1413 1407 1401 1395 1391 1386 1381 1374 1369 1364 1361 1358 1355 1353 1350 1348 1346 1344 1343 1340 1339 1338 1337 1337 1337 1340 1342 1344 1345 1347 1348
1478 1473 1467 1461 1455 1449 1443 1436 1430 1423 1416 1409 1403 1397 1390 1384 1380 1374 1370 1365 1360 1355 1351 1348 1344 1342 1339 1336 1334 1333 1332 1331 1330 1328 1325 1325 1328 1331 1333 1335 1336 1337 1338
1472 1466 1461 1454 1447 1441 1434 1427 1420 1413 1406 1399 1392 1386 1379 1373 1369 1364 1359 1355 1350 1346 1342 1339 1335 1331 1329 1326 1323 1321 1319 1319 1319 1319 1317 1316 1319 1322 1324 1326 1328 1330 1332
1465 1459 1453 1447 1440 1433 1426 1419 1412 1404 1396 1390 1383 1376 1369 1363 1359 1354 1350 1344 1340 1336 1333 1330 1326 1323 1320 1318 1315 1312 1309 1308 1309 1309 1309 1310 1311 1313 1315 1318 1320 1322 1323
1458 1452 1446 1440 1433 1425 1418 1410 1403 1396 1388 1381 1373 1367 1361 1354 1350 1346 1342 1337 1332 1328 1324 1321 1319 1315 1312 1310 1307 1304 1301 1300 1300 1300 1301 1302 1303 1304 1307 1308 1310 1313 1315
1451 1445 1439 1432 1426 1418 1410 1402 1395 1387 1379 1371 1364 1357 1352 1347 1342 1339 1335 1331 1326 1321 1317 1313 1310 1308 1305 1302 1300 1297 1295 1294 1293 1293 1293 1294 1295 1297 1299 1302 1303 1306 1308
1443 1437 1430 1424 1417 1410 1402 1394 1387 1379 1371 1362 1355 1348 1344 1340 1336 1331 1328 1325 1320 1315 1310 1307 1303 1300 1297 1295 1293 1290 1289 1288 1287 1286 1286 1287 1288 1290 1292 1295 1298 1300 1302
1435 1429 1422 1415 1409 1402 1394 1386 1378 1371 1364 1356 1349 1342 1336 1332 1328 1325 1321 1317 1313 1309 1304 1300 1296 1293 1290 1288 1286 1284 1283 1281 1280 1280 1280 1281 1283 1285 1287 1289 1291 1294 1296
1427 1420 1414 1406 1399 1392 1386 1379 1372 1364 1357 1351 1344 1337 1331 1326 1321 1317 1313 1309 1305 1301 1296 1292 1289 1286 1283 1281 1278 1277 1276 1275 1274 1274 1275 1277 1278 1280 1282 1284 1286 1288 1290
1420 1413 1406 1399 1391 1384 1377 1372 1365 1358 1354 1347 1340 1334 1327 1320 1315 1312 1308 1303 1299 1294 1289 1285 1281 1278 1276 1273 1272 1270 1269 1269 1269 1270 1270 1272 1273 1275 1277 1279 1281 1283 1284
1412 1405 1398 1391 1384 1377 1369 1361 1356 1352 1346 1341 1335 1329 1321 1316 1310 1306 1301 1297 1292 1288 1283 1278 1275 1272 1269 1267 1266 1265 1264 1264 1264 1265 1266 1268 1269 1271 1272 1274 1276 1277 1278
1406 1399 1391 1384 1377 1370 1363 1355 1347 1340 1337 1332 1326 1321 1315 1309 1304 1299 1295 1290 1285 1281 1277 1272 1269 1266 1263 1262 1260 1259 1259 1259 1260 1261 1262 1264 1265 1267 1268 1269 1270 1271 1271
1398 1392 1385 1378 1371 1364 1358 1351 1344 1336 1328 1321 1318 1313 1308 1303 1298 1293 1288 1284 1278 1275 1271 1267 1264 1261 1259 1257 1256 1255 1255 1256 1256 1257 1258 1260 1261 1262 1263 1264 1265 1265 1265
1390 1384 1377 1371 1365 1359 1352 1346 1339 1332 1325 1318 1311 1305 1302 1297 1292 1287 1283 1278 1273 1269 1266 1262 1259 1257 1254 1253 1252 1252 1252 1252 1253 1254 1255 1256 1257 1258 1258 1259 1259 1259 1258
1383 1377 1371 1364 1358 1352 1346 1340 1333 1327 1320 1313 1307 1301 1296 1290 1285 1281 1277 1273 1268 1264 1261 1258 1255 1253 1251 1250 1249 1249 1249 1249 1250 1251 1251 1252 1253 1253 1253 1253 1253 1252 1251
1375 1369 1364 1358 1352 1346 1340 1333 1327 1321 1315 1308 1302 1297 1293 1287 1282 1276 1272 1268 1264 1260 1257 1254 1251 1249 1248 1247 1246 1246 1246 1246 1247 1247 1248 1248 1248 1248 1248 1248 1247 1246 1245
1368 1362 1356 1351 1345 1339 1333 1327 1321 1315 1309 1303 1296 1291 1287 1282 1277 1272 1267 1263 1259 1256 1253 1250 1248 1246 1245 1244 1244 1243 1243 1244 1244 1244 1244 1244 1244 1244 1243 1242 1241 1240 1238
1361 1355 1350 1344 1338 1332 1326 1320 1314 1309 1303 1298 1292 1287 1282 1277 1272 1268 1263 1259 1255 1252 1250 1247 1245 1244 1243 1242 1241 1241 1241 1241 1241 1241 1241 1241 1240 1239 1238 1237 1235 1233 1231
1354 1349 1343 1337 1331 1325 1319 1313 1308 1303 1298 1292 1287 1282 1277 1273 1268 1263 1259 1255 1252 1249 1247 1245 1243 1242 1241 1240 1240 1239 1239 1239 1239 1238 1238 1237 1236 1235 1233 1231 1229 1227 1224
1348 1342 1336 1330 1324 1318 1313 1307 1302 1297 1292 1287 1282 1277 1273 1268 1264 1259 1256 1252 1249 1247 1245 1243 1242 1241 1240 1239 1238 1238 1238 1237 1236 1236 1235 1233 1232 1230 1228 1226 1224 1221 1218
1340 1335 1329 1323 1317 1312 1307 1301 1296 1292 1287 1282 1277 1273 1268 1264 1260 1256 1253 1250 1247 1245 1243 1242 1241 1240 1239 1238 1237 1237 1236 1235 1234 1233 1231 1230 1228 1226 1223 1221 1218 1215 1211